RH
29 29 28 26 26 27 28 28 30 32 33 33 33 32 28 26 27 27 28 29 29 31 33 37 41 42 45 42 27 14 12 12 11 11 12 12 14 16 20 27 33 39
32 33 32 31 31 33 34 35 36 36 36 36 34 32 30 29 28 26 27 28 30 33 33 35 40 42 45 46 35 20 13 14 14 12 13 14 16 19 25 31 38 49
34 34 35 35 35 37 39 40 41 39 38 38 35 33 32 31 29 28 26 26 29 34 37 38 40 42 45 47 42 27 17 16 16 14 14 15 17 24 32 35 40 50
35 35 36 36 37 40 42 41 42 42 41 40 37 36 34 32 32 31 28 29 30 34 39 40 41 43 44 47 45 33 22 18 17 16 16 16 19 25 32 39 43 44
35 35 36 37 38 42 44 42 42 44 43 43 41 39 37 37 35 33 32 34 34 36 39 43 46 45 44 46 47 38 26 21 19 18 17 18 19 21 29 36 40 38
31 34 36 37 39 41 43 43 44 45 45 45 44 42 41 40 38 37 35 34 38 41 42 47 51 48 45 43 43 40 30 24 22 20 23 29 27 24 31 34 30 32
27 29 32 35 37 40 42 43 44 45 46 46 46 45 44 43 41 39 37 39 47 48 46 52 57 52 47 43 40 38 32 27 25 24 29 35 32 28 33 35 30 30
28 25 28 33 37 38 40 42 41 41 44 45 46 47 44 44 44 41 41 49 57 55 51 57 62 57 54 51 44 39 34 30 30 29 29 31 29 31 41 45 37 32
36 29 26 28 32 35 38 41 41 41 42 39 46 56 48 40 44 46 48 56 61 59 57 59 64 64 62 59 51 45 39 32 29 30 35 37 34 36 47 49 38 34
49 45 37 30 29 30 32 37 39 39 42 40 47 62 58 45 48 52 54 61 65 67 67 64 64 67 67 65 59 52 44 34 31 33 37 41 39 37 43 45 41 46
54 53 45 36 32 28 25 33 39 36 41 46 46 56 63 61 61 60 57 62 71 79 79 71 68 69 70 70 64 54 45 36 34 36 38 43 43 40 43 47 50 55
56 54 47 38 35 33 28 34 48 49 50 54 52 56 65 65 64 63 60 61 69 79 79 73 73 74 74 75 68 53 43 38 37 40 44 48 48 46 50 57 60 59
55 57 58 54 52 51 40 31 41 52 55 59 58 57 61 60 58 60 59 57 59 67 71 70 73 77 78 80 73 55 44 42 41 45 50 53 54 55 58 63 67 66
47 49 56 60 64 71 59 37 36 45 51 59 58 50 50 51 47 45 47 48 48 51 56 61 67 74 78 83 81 65 54 50 47 49 55 59 60 63 64 65 69 72
42 45 49 50 55 71 70 53 48 47 43 46 44 38 38 37 34 36 43 48 47 46 51 57 66 75 78 82 84 73 61 57 53 52 57 62 64 69 71 68 66 69
53 60 66 60 56 66 69 60 56 53 43 36 34 37 39 36 37 46 50 50 50 51 56 61 69 78 82 84 85 77 65 60 57 55 59 63 66 70 74 71 67 64
56 58 64 60 51 51 53 54 60 63 56 44 37 41 45 43 43 49 51 50 52 55 59 64 70 79 85 87 86 81 72 64 62 62 63 64 67 71 75 73 68 63
40 40 42 43 43 44 46 51 60 65 64 56 47 45 48 49 47 46 47 48 50 55 61 65 70 77 84 88 88 84 77 70 67 67 65 65 66 70 74 73 69 64
38 39 39 40 42 41 40 44 50 56 61 62 58 53 51 49 46 45 47 46 47 53 61 69 74 78 83 86 86 83 79 74 69 67 67 66 67 72 77 77 75 72
40 42 42 38 32 26 25 31 39 50 61 64 60 55 49 45 44 46 48 46 48 57 65 73 81 83 83 83 83 81 80 76 72 72 72 72 73 77 81 80 78 79
37 36 31 24 19 17 20 24 29 41 55 56 50 47 46 46 48 49 49 48 53 62 70 76 83 86 82 79 79 80 80 77 76 79 79 77 78 80 81 81 81 83
24 20 16 15 18 22 26 27 28 38 50 53 52 51 53 54 53 51 52 53 55 62 69 74 81 86 82 77 76 77 75 75 79 82 81 77 78 80 80 80 82 83
15 15 17 22 27 30 31 34 38 47 57 61 61 59 57 55 54 55 56 55 55 58 62 68 77 83 83 80 78 74 71 75 80 81 81 79 79 80 79 78 81 83
18 21 25 29 32 33 37 44 51 58 63 63 59 55 53 55 61 67 65 61 60 60 62 68 77 83 86 85 81 73 71 78 81 78 81 85 83 80 78 79 83 85
24 26 28 29 31 35 44 54 61 64 65 63 58 55 56 62 71 74 68 64 66 66 67 72 77 83 89 87 80 74 75 80 81 78 83 89 87 84 84 85 89 91
25 25 26 29 33 39 46 56 64 66 66 66 63 57 56 62 66 63 57 57 61 64 71 76 78 82 86 82 76 76 79 82 81 80 83 86 88 90 90 86 85 86
Wind_Speed
21 21 20 20 19 19 18 16 14 13 11 10 9 8 7 6 5 6 7 8 9 11 12 13 14 15 15 16 15 12 11 11 12 11 11 10 9 9 9 9 10 11
21 21 21 22 21 20 18 17 16 15 14 13 12 10 9 7 6 7 8 9 10 12 14 15 16 16 16 16 16 14 13 12 13 13 13 11 10 11 11 11 12 11
23 23 22 23 23 22 21 20 18 17 17 16 14 12 10 9 8 8 9 10 11 13 14 16 17 18 18 18 16 15 14 14 14 14 13 13 12 11 12 12 12 12
24 24 24 26 27 26 26 24 23 21 20 19 16 14 12 11 10 10 10 10 11 13 14 16 17 19 20 20 18 17 16 15 15 15 14 14 13 13 13 13 13 13
26 26 28 30 31 30 30 29 27 25 24 22 19 16 15 13 12 11 10 10 11 13 15 16 17 19 21 21 20 18 17 17 17 17 16 15 14 14 14 15 15 14
28 29 31 32 33 34 34 33 31 29 27 24 21 19 17 14 14 13 12 13 14 14 15 17 18 19 20 21 21 20 18 17 17 18 17 16 15 15 15 16 16 16
29 30 32 33 34 35 36 35 34 32 29 27 25 22 19 17 16 16 18 20 19 17 16 18 18 19 20 21 21 21 20 18 17 17 17 16 16 16 17 17 17 16
28 30 33 34 35 37 38 37 36 35 33 30 29 26 24 22 20 20 23 25 22 18 19 20 20 20 21 21 21 21 21 19 17 17 17 17 17 17 17 17 16 15
28 30 33 35 36 37 38 37 36 36 35 35 35 30 27 25 23 23 26 29 26 22 22 25 26 25 24 23 22 21 22 20 18 17 17 17 17 18 17 16 15 13
28 29 31 34 35 37 38 36 34 36 37 40 40 32 27 28 28 28 30 31 29 26 26 28 29 30 30 28 24 22 22 21 19 18 18 17 17 18 17 15 14 12
29 31 32 35 36 38 40 36 32 34 37 41 43 39 35 35 34 35 36 36 34 31 30 30 30 31 34 32 27 23 22 21 19 18 18 17 17 17 16 15 13 12
34 37 38 40 41 41 45 41 32 28 28 31 38 43 40 37 38 40 41 42 43 42 40 37 35 34 35 33 29 24 22 21 19 19 18 17 16 15 15 15 14 14
37 37 37 40 40 42 48 48 40 33 27 26 26 29 28 25 28 31 30 29 29 31 33 35 36 37 36 34 31 26 22 21 20 19 19 18 17 16 16 17 17 17
36 33 32 35 38 42 48 50 47 42 32 25 24 24 22 21 24 27 25 21 17 16 19 24 30 34 33 34 34 30 25 23 22 21 20 20 19 18 19 20 18 18
34 34 34 33 36 42 45 43 40 36 30 29 31 30 26 24 25 25 23 22 21 19 19 23 29 32 31 33 35 33 28 25 24 23 22 22 22 21 22 22 21 20
37 39 42 39 37 40 39 34 32 29 28 30 31 27 23 20 17 17 18 22 25 26 24 27 32 34 32 33 35 34 30 27 26 26 25 25 25 25 25 24 23 23
35 37 39 37 33 33 32 29 27 26 25 26 23 19 17 15 13 14 17 22 27 29 29 30 33 35 34 34 36 35 32 30 29 28 28 28 28 27 27 26 26 26
30 31 31 31 29 29 30 29 27 25 24 25 23 20 19 17 14 14 16 20 24 28 32 32 32 34 36 37 37 36 35 35 33 31 31 29 29 29 28 27 27 27
31 32 31 31 30 29 29 28 26 25 24 24 23 22 22 20 17 15 17 20 23 26 31 34 34 34 35 36 37 37 37 38 37 34 33 29 28 29 28 28 29 29
32 33 33 32 29 27 25 24 22 21 20 20 19 20 21 20 18 17 18 21 23 25 30 35 37 38 36 35 36 36 36 39 39 35 33 31 29 29 28 28 31 32
32 32 30 28 24 22 21 22 21 19 16 15 16 17 17 17 17 17 18 21 22 25 29 33 36 39 39 36 34 34 34 38 38 36 35 34 31 28 29 30 32 35
28 26 24 21 19 19 19 20 20 17 12 11 12 13 14 15 16 16 17 19 20 23 26 28 30 35 36 34 33 33 33 35 37 38 37 35 31 30 33 34 35 37
23 21 18 16 16 17 19 20 18 14 10 9 11 13 16 17 16 14 15 16 19 21 23 24 25 28 31 31 30 29 30 34 38 39 36 35 33 33 35 36 37 39
20 18 16 14 15 17 18 18 15 12 12 13 15 18 19 17 14 13 14 14 16 18 19 20 21 23 27 29 28 27 29 34 36 34 34 35 35 34 36 39 41 43
19 17 15 14 17 18 19 18 17 16 16 17 18 18 17 14 12 12 13 12 13 16 16 16 18 22 25 27 26 27 30 32 30 31 33 36 37 36 37 40 41 43
16 15 15 18 20 20 20 20 21 21 19 17 17 17 15 13 12 11 11 9 10 11 12 13 16 20 24 26 26 27 28 29 30 32 35 38 39 40 40 39 37 37
Wind_Direction
194 196 197 197 197 195 194 195 193 194 196 199 208 214 220 237 260 282 301 308 309 311 312 312 314 317 323 332 333 322 311 312 315 317 316 314 314 312 307 299 295 292
199 200 201 202 202 201 201 203 203 204 208 213 218 223 230 248 266 283 301 310 312 311 309 308 311 314 318 324 330 322 310 308 310 311 313 315 318 316 310 304 298 293
207 207 207 208 209 210 211 213 215 217 220 223 227 232 241 253 265 280 294 303 309 312 310 310 311 313 315 319 324 322 310 305 305 305 306 309 311 308 302 300 295 289
215 215 214 214 214 214 216 220 222 224 227 231 234 239 250 260 266 278 290 296 301 306 307 307 307 308 311 314 319 319 310 303 302 300 299 299 301 301 298 296 291 289
222 221 219 218 216 217 220 224 226 228 230 233 237 243 250 257 265 273 280 282 286 292 295 298 300 301 304 309 314 314 307 300 298 296 294 292 292 292 294 294 293 294
228 227 225 224 222 222 224 226 228 229 231 234 239 244 247 252 262 266 263 266 274 278 283 290 292 293 296 302 307 308 302 295 293 293 292 290 290 291 291 291 293 295
235 235 233 231 229 228 229 230 230 231 233 236 238 240 242 246 253 256 260 270 275 272 275 284 286 285 288 294 300 301 297 290 286 288 287 284 285 287 285 285 291 295
242 244 240 236 234 233 232 232 232 234 236 237 238 238 238 240 242 246 261 275 278 275 280 286 286 282 281 285 292 296 292 287 284 284 283 280 280 280 280 283 289 294
250 251 244 240 239 239 238 236 235 237 239 240 240 239 235 237 241 246 262 275 277 278 284 287 288 287 282 280 284 289 289 285 282 281 278 277 276 276 279 283 289 295
261 260 253 249 246 241 239 242 241 240 242 245 249 251 246 244 248 254 264 273 273 273 276 277 279 282 282 280 278 280 283 281 277 276 274 272 274 275 276 280 288 295
266 264 257 252 249 243 241 248 253 249 249 254 258 260 259 256 259 262 266 269 268 266 268 269 271 273 275 276 273 271 275 275 271 271 271 270 270 273 276 282 290 293
261 259 254 247 244 243 244 251 259 261 270 279 272 265 264 269 272 270 271 274 274 272 271 269 268 270 271 271 269 267 268 270 268 269 270 268 267 272 280 286 291 294
258 260 262 258 251 245 244 250 258 267 291 316 309 287 282 288 289 284 282 283 282 278 272 265 264 269 269 267 265 262 261 263 265 266 269 268 267 273 281 285 290 294
260 260 263 266 262 251 242 244 253 264 280 307 323 320 309 302 304 301 292 283 282 282 276 267 265 268 266 262 262 261 257 258 261 263 266 267 267 273 281 285 289 290
258 256 256 264 268 259 249 249 257 267 279 291 301 309 309 306 307 301 286 278 280 281 276 270 268 270 267 261 259 257 253 253 256 258 262 266 267 271 277 281 283 285
254 255 257 263 271 270 268 270 274 281 294 301 298 297 302 312 315 302 285 280 279 275 269 266 267 268 268 263 258 254 249 248 250 253 258 264 266 268 272 274 276 280
254 257 257 261 268 274 279 283 284 285 294 303 303 293 295 310 318 306 288 278 275 270 266 267 268 267 265 262 259 254 248 244 246 249 253 258 262 265 268 271 275 280
256 260 262 265 270 276 282 284 284 284 287 295 301 300 299 302 305 303 293 285 281 275 271 270 269 269 266 260 256 254 249 244 243 244 247 253 260 264 268 272 277 283
260 264 268 273 278 282 286 287 287 287 288 292 294 296 298 300 301 300 298 296 292 283 276 271 267 268 267 261 258 256 250 245 242 244 247 252 258 263 268 275 279 283
262 267 271 276 281 286 291 297 300 297 290 286 286 288 290 292 294 295 297 300 294 283 275 270 266 264 264 265 263 256 250 248 248 252 255 254 257 263 268 274 277 279
265 268 270 273 278 285 293 300 305 304 294 283 279 279 279 281 286 291 296 298 291 279 274 272 266 261 262 267 263 255 253 252 255 265 265 256 255 262 265 269 274 277
266 266 267 270 278 289 294 295 300 304 296 276 269 272 278 283 288 291 292 291 285 277 274 272 267 263 263 264 259 258 260 258 263 273 268 255 255 262 264 269 276 280
262 261 263 271 283 293 295 293 294 292 280 269 275 283 286 289 290 288 285 283 281 278 272 268 267 264 260 258 258 262 264 266 272 273 261 254 259 262 265 273 278 280
257 260 268 281 293 297 296 292 284 272 270 277 285 290 290 290 286 278 273 274 277 276 268 262 262 259 254 256 261 265 268 275 276 264 253 259 267 265 267 272 274 276
257 264 276 293 303 303 299 291 280 273 275 281 286 290 290 285 275 266 266 271 275 272 263 253 252 253 253 257 262 267 274 277 269 255 257 271 277 277 278 278 278 280
261 275 293 304 309 309 304 294 284 279 278 281 285 288 283 274 264 259 262 268 270 266 257 251 251 252 254 258 262 268 276 272 260 257 267 275 278 283 289 289 287 284